DIRECTV 5 (TEMPO 1)     
1 27426U 02023A   19260.53788800 -.00000061  00000-0  00000+0 0  9992
2 27426   0.0028 167.4823 0003655  19.8522 252.3746  1.00272580 63609
SL-12 R/B(2)            
1 27429U 02023D   19258.76587428 -.00000169  00000-0  00000-0 0  9990
2 27429  17.6697 117.8928 5354358 271.5369 327.9651  1.90584189120926